Simultaneous Nadir Overpasses (SNOs) Predictions

Prediction of SNOs between NOAA-15 and METOP-C Satellite Orbit:

Table of predicted SNOs for the next 14.0 days since TLE Epoch: 5/14/2022
Index Date (NOAA-15) Time (NOAA-15) Lat,Lon (NOAA-15) SZA (NOAA-15 ) Date (METOP-C) Time (METOP-C) Lat,Lon (METOP-C) SZA (METOP-C ) Distance(km) Time Diff (sec)
1 05/19/2022 22:51:04 81.06,-124.54 63.22 05/19/2022 22:49:50 81.06,-124.55 63.19 0.60 74
2 05/19/2022 23:41:39 -81.07, 42.63 116.81 05/19/2022 23:40:31 -81.06, 42.58 116.85 1.55 68
3 05/20/2022 00:32:06 81.06,-149.86 63.20 05/20/2022 00:31:11 81.07,-149.70 63.20 2.99 55
4 05/20/2022 01:22:41 -81.07, 17.32 116.82 05/20/2022 01:21:52 -81.06, 17.43 116.84 2.01 49
5 05/20/2022 02:13:08 81.06,-175.17 63.18 05/20/2022 02:12:33 81.06,-175.21 63.16 0.76 35
6 05/20/2022 03:03:43 -81.07, -7.99 116.84 05/20/2022 03:03:14 -81.06, -8.08 116.88 2.28 29
7 05/20/2022 03:54:10 81.07, 159.51 63.16 05/20/2022 03:53:54 81.07, 159.64 63.17 2.27 16
8 05/20/2022 04:44:45 -81.07, -33.30 116.86 05/20/2022 04:44:35 -81.06, -33.23 116.86 1.66 10
9 05/20/2022 05:35:12 81.07, 134.20 63.14 05/20/2022 05:35:16 81.07, 134.12 63.14 1.39 4
10 05/20/2022 06:25:46 -81.06, -58.25 116.85 05/20/2022 06:25:56 -81.07, -58.37 116.85 2.57 10
11 05/20/2022 07:16:14 81.07, 108.88 63.13 05/20/2022 07:16:37 81.07, 108.97 63.15 1.60 23
12 05/20/2022 08:06:49 -81.08, -83.93 116.90 05/20/2022 08:07:18 -81.06, -83.89 116.89 1.62 29
13 05/20/2022 08:57:16 81.07, 83.57 63.11 05/20/2022 08:57:59 81.07, 83.46 63.11 2.10 43
14 05/20/2022 09:47:50 -81.06,-108.87 116.89 05/20/2022 09:48:39 -81.07,-109.03 116.88 2.95 49
15 05/20/2022 10:38:18 81.08, 58.25 63.09 05/20/2022 10:39:20 81.07, 58.31 63.12 1.06 62



Historial Predications of SNOs between NOAA-15 and METOP-C
